• In Belarus
  • List of Countries
  • For 7 days
  • Water Temperature
  • Satellite Maps
  • Weather Map
  • Weather Widgets
  • user-avatar
    Login

    Hourly Weather Kalat

    Today, 18 August, Saturday

    Time Temperature Precipitation Wind Pressure Humidity
    00:00 +8°C° 0 mm 3 mps 479 mmHg 60%
    01:00 +7°C° 0 mm 2 mps 479 mmHg 62%
    02:00 +7°C° 0 mm 2 mps 478 mmHg 64%
    03:00 +6°C° 0 mm 2 mps 478 mmHg 65%
    04:00 +6°C° 0 mm 2 mps 478 mmHg 67%
    05:00 +6°C° 0 mm 2 mps 477 mmHg 68%
    06:00 +6°C° 0 mm 2 mps 478 mmHg 62%
    07:00 +7°C° 0 mm 2 mps 479 mmHg 56%
    08:00 +8°C° 0 mm 2 mps 479 mmHg 50%
    09:00 +10°C° 0 mm 2 mps 480 mmHg 43%
    10:00 +12°C° 0 mm 2 mps 481 mmHg 37%
    11:00 +13°C° 0 mm 2 mps 482 mmHg 30%
    12:00 +13°C° 0 mm 3 mps 482 mmHg 29%
    13:00 +14°C° 0 mm 3 mps 482 mmHg 27%
    14:00 +15°C° 0 mm 4 mps 483 mmHg 26%
    15:00 +15°C° 0 mm 4 mps 482 mmHg 27%
    16:00 +14°C° 0 mm 4 mps 482 mmHg 29%
    17:00 +14°C° 0 mm 4 mps 482 mmHg 31%
    18:00 +13°C° 0 mm 4 mps 481 mmHg 34%
    19:00 +12°C° 0 mm 3 mps 481 mmHg 38%
    20:00 +10°C° 0 mm 3 mps 480 mmHg 41%
    21:00 +10°C° 0 mm 3 mps 480 mmHg 43%
    22:00 +9°C° 0 mm 2 mps 480 mmHg 45%
    23:00 +8°C° 0 mm 2 mps 480 mmHg 47%

    Tomorrow, 19 August, Sunday

    Time Temperature Precipitation Wind Pressure Humidity
    00:00 +8°C° 0 mm 2 mps 479 mmHg 49%
    01:00 +7°C° 0 mm 2 mps 479 mmHg 50%
    02:00 +7°C° 0 mm 2 mps 478 mmHg 51%
    03:00 +6°C° 0 mm 2 mps 478 mmHg 52%
    04:00 +6°C° 0 mm 2 mps 477 mmHg 52%
    05:00 +5°C° 0 mm 2 mps 477 mmHg 53%
    06:00 +6°C° 0 mm 2 mps 478 mmHg 46%
    07:00 +7°C° 0 mm 2 mps 479 mmHg 39%
    08:00 +8°C° 0 mm 2 mps 480 mmHg 31%
    09:00 +10°C° 0 mm 2 mps 481 mmHg 27%
    10:00 +12°C° 0 mm 2 mps 481 mmHg 22%
    11:00 +13°C° 0 mm 3 mps 482 mmHg 18%
    12:00 +13°C° 0 mm 3 mps 483 mmHg 18%
    13:00 +14°C° 0 mm 3 mps 483 mmHg 17%
    14:00 +15°C° 0 mm 4 mps 483 mmHg 17%
    15:00 +15°C° 0 mm 4 mps 483 mmHg 18%
    16:00 +15°C° 0 mm 4 mps 483 mmHg 20%
    17:00 +14°C° 0 mm 4 mps 482 mmHg 21%
    18:00 +13°C° 0 mm 4 mps 482 mmHg 24%
    19:00 +12°C° 0 mm 3 mps 481 mmHg 27%
    20:00 +11°C° 0 mm 3 mps 481 mmHg 30%
    21:00 +10°C° 0 mm 2 mps 480 mmHg 32%
    22:00 +9°C° 0 mm 2 mps 480 mmHg 33%
    23:00 +9°C° 0 mm 2 mps 480 mmHg 35%

    Day after tomorrow, 20 August, Monday

    Time Temperature Precipitation Wind Pressure Humidity
    00:00 +8°C° 0 mm 2 mps 479 mmHg 36%
    01:00 +8°C° 0 mm 2 mps 479 mmHg 38%
    02:00 +7°C° 0 mm 2 mps 479 mmHg 39%
    03:00 +6°C° 0 mm 2 mps 478 mmHg 39%
    04:00 +6°C° 0 mm 2 mps 478 mmHg 39%
    05:00 +5°C° 0 mm 2 mps 477 mmHg 39%
    06:00 +7°C° 0 mm 2 mps 479 mmHg 33%
    07:00 +8°C° 0 mm 2 mps 480 mmHg 27%
    08:00 +10°C° 0 mm 2 mps 481 mmHg 20%
    09:00 +12°C° 0 mm 2 mps 482 mmHg 17%
    10:00 +13°C° 0 mm 3 mps 483 mmHg 14%
    11:00 +14°C° 0 mm 3 mps 484 mmHg 11%
    12:00 +16°C° 0 mm 3 mps 484 mmHg 12%
    13:00 +17°C° 0 mm 3 mps 485 mmHg 12%
    14:00 +18°C° 0 mm 4 mps 485 mmHg 12%
    15:00 +17°C° 0 mm 4 mps 485 mmHg 14%
    16:00 +17°C° 0 mm 4 mps 485 mmHg 15%
    17:00 +17°C° 0 mm 4 mps 485 mmHg 16%
    18:00 +14°C° 0 mm 4 mps 484 mmHg 20%
    19:00 +13°C° 0 mm 4 mps 483 mmHg 23%
    20:00 +11°C° 0 mm 3 mps 483 mmHg 26%
    21:00 +10°C° 0 mm 3 mps 482 mmHg 28%
    22:00 +10°C° 0 mm 3 mps 482 mmHg 30%
    23:00 +9°C° 0 mm 3 mps 481 mmHg 32%

    21 August, Tuesday

    Time Temperature Precipitation Wind Pressure Humidity
    00:00 +8°C° 0 mm 3 mps 481 mmHg 33%
    01:00 +8°C° 0 mm 3 mps 480 mmHg 35%
    02:00 +7°C° 0 mm 3 mps 480 mmHg 36%
    03:00 +5°C° 0 mm 3 mps 479 mmHg 36%
    04:00 +5°C° 0 mm 3 mps 479 mmHg 36%
    05:00 +5°C° 0 mm 3 mps 479 mmHg 36%
    06:00 +7°C° 0 mm 3 mps 480 mmHg 32%
    07:00 +7°C° 0 mm 4 mps 481 mmHg 28%
    08:00 +8°C° 0 mm 4 mps 482 mmHg 24%
    09:00 +11°C° 0 mm 4 mps 483 mmHg 22%
    10:00 +12°C° 0 mm 4 mps 483 mmHg 21%
    11:00 +14°C° 0 mm 4 mps 484 mmHg 19%
    12:00 +14°C° 0 mm 4 mps 484 mmHg 19%
    13:00 +15°C° 0 mm 4 mps 484 mmHg 19%
    14:00 +15°C° 0 mm 4 mps 484 mmHg 18%
    15:00 +15°C° 0 mm 4 mps 484 mmHg 20%
    16:00 +14°C° 0 mm 4 mps 484 mmHg 21%
    17:00 +14°C° 0 mm 5 mps 483 mmHg 22%
    18:00 +13°C° 0 mm 4 mps 483 mmHg 26%
    19:00 +11°C° 0 mm 4 mps 482 mmHg 30%
    20:00 +10°C° 0 mm 4 mps 482 mmHg 34%
    21:00 +9°C° 0 mm 3 mps 481 mmHg 37%
    22:00 +8°C° 0 mm 3 mps 481 mmHg 40%
    23:00 +8°C° 0 mm 3 mps 480 mmHg 43%

    22 August, Wednesday

    Time Temperature Precipitation Wind Pressure Humidity
    00:00 +7°C° 0 mm 3 mps 480 mmHg 46%
    01:00 +7°C° 0 mm 3 mps 479 mmHg 48%
    02:00 +5°C° 0 mm 3 mps 479 mmHg 51%
    03:00 +4°C° 0 mm 3 mps 478 mmHg 53%
    04:00 +4°C° 0 mm 3 mps 478 mmHg 56%
    05:00 +3°C° 0 mm 3 mps 478 mmHg 59%
    06:00 +4°C° 0 mm 3 mps 478 mmHg 55%
    07:00 +5°C° 0 mm 3 mps 479 mmHg 50%
    08:00 +7°C° 0 mm 3 mps 480 mmHg 46%
    09:00 +9°C° 0 mm 3 mps 481 mmHg 41%
    10:00 +11°C° 0 mm 3 mps 482 mmHg 35%
    11:00 +12°C° 0 mm 3 mps 483 mmHg 29%
    12:00 +13°C° 0 mm 3 mps 483 mmHg 28%
    13:00 +14°C° 0 mm 4 mps 483 mmHg 27%
    14:00 +15°C° 0 mm 4 mps 483 mmHg 26%
    15:00 +14°C° 0 mm 4 mps 483 mmHg 28%
    16:00 +14°C° 0 mm 4 mps 483 mmHg 30%
    17:00 +13°C° 0 mm 4 mps 482 mmHg 32%
    18:00 +12°C° 0 mm 4 mps 482 mmHg 37%
    19:00 +11°C° 0 mm 3 mps 481 mmHg 42%
    20:00 +9°C° 0 mm 3 mps 481 mmHg 47%
    21:00 +9°C° 0 mm 3 mps 480 mmHg 50%
    22:00 +8°C° 0 mm 3 mps 480 mmHg 53%
    23:00 +7°C° 0 mm 2 mps 480 mmHg 55%

    23 August, Thursday

    Time Temperature Precipitation Wind Pressure Humidity
    00:00 +7°C° 0 mm 2 mps 479 mmHg 57%
    01:00 +6°C° 0 mm 2 mps 479 mmHg 58%
    02:00 +6°C° 0 mm 2 mps 478 mmHg 60%
    03:00 +5°C° 0 mm 2 mps 478 mmHg 61%
    04:00 +5°C° 0 mm 2 mps 477 mmHg 62%
    05:00 +4°C° 0 mm 2 mps 477 mmHg 63%
    06:00 +5°C° 0 mm 2 mps 478 mmHg 56%
    07:00 +6°C° 0 mm 2 mps 479 mmHg 49%
    08:00 +7°C° 0 mm 2 mps 479 mmHg 42%
    09:00 +9°C° 0 mm 3 mps 480 mmHg 36%
    10:00 +11°C° 0 mm 3 mps 481 mmHg 31%
    11:00 +12°C° 0 mm 3 mps 482 mmHg 25%
    12:00 +13°C° 0 mm 3 mps 482 mmHg 25%
    13:00 +14°C° 0 mm 3 mps 483 mmHg 24%
    14:00 +15°C° 0 mm 4 mps 483 mmHg 23%
    15:00 +14°C° 0 mm 4 mps 483 mmHg 26%
    16:00 +14°C° 0 mm 4 mps 482 mmHg 28%
    17:00 +13°C° 0 mm 4 mps 482 mmHg 31%
    18:00 +12°C° 0 mm 4 mps 481 mmHg 35%
    19:00 +11°C° 0 mm 3 mps 481 mmHg 40%
    20:00 +9°C° 0 mm 3 mps 480 mmHg 45%
    21:00 +9°C° 0 mm 3 mps 480 mmHg 47%
    22:00 +8°C° 0 mm 2 mps 480 mmHg 49%
    23:00 +7°C° 0 mm 2 mps 479 mmHg 51%
    Show more